CZ-6A DEB

Satellite information

Favourite Embed

Satellite Type and Status

DEBRISIN ORBIT

Key statistics

Satellite CZ-6A DEB at a glance.

Uptime

273

Days in orbit

Revolutions

≈ 14.1

Per day

Orbit

LEO

Low Earth Orbit

Inclination

89.1

Latest

Satellite identification and parameters

Extended collection of information and parameters for CZ-6A DEB.

Object identification

Identified? True

Debris? True

Object name: CZ-6A DEB

International designator: 2024-140ADG

Object number (NORAD): 61840

Object ID (CCSDS): 61840

Country: PEOPLES REPUBLIC OF CHINA (PRC)

Current information (Y/N): Y

RCS size: SMALL

Orbital parameters

Period: 101.83 minutes

Inclination: 89.0634 deg

SMA: 7223.43 km

Apoapsis: 902.564 km

Periapsis: 788.026 km

RAAN: 322.8217 deg

Eccentricy: 0.0079282

Argument of periapsis: 78.8509 deg

Mean anomaly: 282.1578 deg

Mean motion: 14.14124146 rev/day

Mean motion (dot): 0.00002778 rev/day2

B* drag term: 0.0014092 1/REarth

Two-line elements (TLE)

Creation date: May 6, 2025, 3:54 a.m.

Reference frame: TEME

Reference center: EARTH

Epoch: May 5, 2025, 6:58 p.m. UTC

TLE line 0: 0 CZ-6A DEB

TLE line 1: 1 61840U 24140ADG 25125.79086017 .00002778 00000-0 14092-2 0 9995

TLE line 2: 2 61840 89.0634 322.8217 0079282 78.8509 282.1578 14.14124146 35662

Live tracking on map

Real-time ground track for satellite CZ-6A DEB.

In-orbit conjunctions

A list of the most updated potential collisions computed for object CZ-6A DEB.

Target Orbit TCA Probability of collision Miss distance Type
THORAD AGENA D DEB SSO 2025-02-21 05:29:36 0.0001432947 381.0 (m) DEBRIS
FENGYUN 1C DEB SSO 2025-02-05 22:40:22 0.0001216841 868.0 (m) DEBRIS
COSMOS 397 DEB LEO 2025-01-03 02:35:46 0.0001343721 592.0 (m) DEBRIS
CZ-6A DEB LEO 2024-11-25 13:42:40 0.0002743955 601.0 (m) DEBRIS
FENGYUN 1C DEB SSO 2024-11-12 19:52:23 0.0001819832 358.0 (m) DEBRIS

Associated space launch

18 Low Earth Orbit communication satellites with Ku, Q and V band payloads for the G60 constellation operated by Shanghai Spacecom Satellite Technology (SSST) with funding backed by the Shanghai local government. Initial constellation will consist of 1296 satellites by 2027 with long term plans to expand it to 12000 satellites.

CZ-6A DEB was lifted into orbit during the mission ‘Long March 6A | G60 Polar Group 01’, on board a Long March 6A space rocket.

The launch took place on Aug. 6, 2024, 6:42 a.m. from Launch Complex 9A.

For more information about the launch, click the button.

Launch to space Long March 6A | G60 Polar Group 01
Long March 6A | G60 Polar Group 01

Agency: N/A

Status: Launch Successful

Launch date: Aug. 6, 2024, 6:42 a.m. UTC

Rocket: Long March 6A

Launch pad: Launch Complex 9A

Location: Taiyuan Satellite Launch Center, People's Republic of China

...

Latest news about this satellite

News about space launch
Brightness of first Chinese broadband constellation satellites alarms astronomers

The first satellites of a Chinese broadband constellation are significantly brighter than those of Western systems, posing a new challenge for astronomers.

News about space launch
Chinese rocket stage breaks up into cloud of more than 700 pieces of space debris

HELSINKI — A Chinese Long March 6A rocket’s upper stage has fragmented into a cloud of over 700 pieces of space debris, adding to concerns about long-term orbital safety. China […]

News about space launch
China's Thousand Sails Megaconstellation Kicks Off with Dangerous Debris Field

China's Thousand Sails Megaconstellation Kicks Off with Dangerous Debris Field


Newsletter sign-up

Weekly statistics, charts and insights to help you stay on top of the space industry.